| time (UTC) | temp F | wind direction | speed MPH | gust MPH | rain 1hr in | rain 24hr in | rain mn in | humidity % | barometer mb |
| 20260831141551 | 86 | 270 | 1.0 | 4.0 | 0.00 | 0.00 | 0.00 | 79 | 1018.1 |
| 20260831140040 | 85 | 0 | 1.0 | 3.0 | 0.00 | 0.00 | 0.00 | 79 | 1018.1 |
| 20260831134537 | 84 | 209 | 1.0 | 3.0 | 0.00 | 0.00 | 0.00 | 81 | 1017.9 |
| 20260831133037 | 83 | 204 | 0.0 | 3.0 | 0.00 | 0.00 | 0.00 | 83 | 1018.0 |
| 20260831131536 | 82 | 0 | 0.0 | 0.0 | 0.00 | 0.00 | 0.00 | 85 | 1017.9 |
| 20260831130043 | 81 | 0 | 0.0 | 1.0 | 0.00 | 0.00 | 0.00 | 85 | 1017.8 |
| 20260831124535 | 80 | 0 | 0.0 | 0.0 | 0.00 | 0.00 | 0.00 | 87 | 1017.6 |
| 20260831123034 | 79 | 0 | 0.0 | 0.0 | 0.00 | 0.00 | 0.00 | 87 | 1017.5 |
| 20260831121537 | 79 | 0 | 0.0 | 0.0 | 0.00 | 0.00 | 0.00 | 87 | 1017.2 |
| 20260831120036 | 80 | 0 | 0.0 | 0.0 | 0.00 | 0.00 | 0.00 | 86 | 1017.2 |
| 20260831114539 | 80 | 0 | 0.0 | 0.0 | 0.00 | 0.00 | 0.00 | 86 | 1017.1 |
| 20260831113040 | 80 | 0 | 0.0 | 0.0 | 0.00 | 0.00 | 0.00 | 85 | 1017.1 |
| 20260831111534 | 80 | 0 | 0.0 | 0.0 | 0.00 | 0.00 | 0.00 | 85 | 1017.0 |
| 20260831110037 | 80 | 0 | 0.0 | 1.0 | 0.00 | 0.00 | 0.00 | 85 | 1017.0 |
| 20260831104535 | 80 | 0 | 0.0 | 1.0 | 0.00 | 0.00 | 0.00 | 85 | 1016.9 |
| 20260831103033 | 80 | 0 | 0.0 | 0.0 | 0.00 | 0.00 | 0.00 | 85 | 1017.1 |
| 20260831101539 | 81 | 0 | 0.0 | 0.0 | 0.00 | 0.00 | 0.00 | 85 | 1017.0 |
| 20260831100033 | 81 | 0 | 0.0 | 0.0 | 0.00 | 0.00 | 0.00 | 84 | 1017.2 |
| 20260831094536 | 81 | 0 | 0.0 | 0.0 | 0.00 | 0.00 | 0.00 | 84 | 1017.1 |
| 20260831093034 | 81 | 0 | 0.0 | 0.0 | 0.00 | 0.00 | 0.00 | 84 | 1017.0 |
| 20260831091533 | 82 | 0 | 0.0 | 3.0 | 0.00 | 0.00 | 0.00 | 84 | 1017.1 |
| 20260831090042 | 82 | 0 | 0.0 | 3.0 | 0.00 | 0.00 | 0.00 | 83 | 1017.1 |
| 20260831084535 | 82 | 0 | 0.0 | 1.0 | 0.00 | 0.00 | 0.00 | 83 | 1017.1 |
| 20260831083034 | 82 | 0 | 0.0 | 1.0 | 0.00 | 0.00 | 0.00 | 83 | 1017.2 |
| 20260831081536 | 82 | 0 | 0.0 | 1.0 | 0.00 | 0.00 | 0.00 | 82 | 1017.3 |
| 20260831080034 | 83 | 0 | 0.0 | 3.0 | 0.00 | 0.00 | 0.00 | 82 | 1017.5 |
| 20260831074536 | 83 | 0 | 0.0 | 4.0 | 0.00 | 0.00 | 0.00 | 82 | 1017.2 |
| 20260831073034 | 83 | 0 | 0.0 | 4.0 | 0.00 | 0.00 | 0.00 | 81 | 1017.2 |
| 20260831071537 | 83 | 208 | 0.0 | 3.0 | 0.00 | 0.00 | 0.00 | 81 | 1017.2 |
| 20260831070038 | 83 | 0 | 0.0 | 5.0 | 0.00 | 0.00 | 0.00 | 81 | 1017.3 |
| 20260831064538 | 84 | 0 | 0.0 | 3.0 | 0.00 | 0.00 | 0.00 | 80 | 1017.4 |
| 20260831063035 | 84 | 0 | 0.0 | 5.0 | 0.00 | 0.00 | 0.00 | 80 | 1017.4 |
| 20260831061537 | 84 | 0 | 0.0 | 3.0 | 0.00 | 0.00 | 0.00 | 80 | 1017.5 |
| 20260831060035 | 84 | 0 | 0.0 | 2.0 | 0.00 | 0.00 | 0.00 | 80 | 1017.4 |
| 20260831054534 | 84 | 0 | 0.0 | 6.0 | 0.00 | 0.00 | 0.00 | 79 | 1017.5 |
| 20260831053035 | 84 | 161 | 0.0 | 5.0 | 0.00 | 0.00 | 0.00 | 79 | 1017.4 |
| 20260831051537 | 84 | 175 | 1.0 | 7.0 | 0.00 | 0.00 | 0.00 | 79 | 1017.4 |
| 20260831050034 | 85 | 134 | 1.0 | 6.0 | 0.00 | 0.00 | 0.00 | 78 | 1017.3 |
| 20260831044535 | 85 | 0 | 1.0 | 6.0 | 0.00 | 0.00 | 0.00 | 78 | 1017.3 |
| 20260831043034 | 85 | 0 | 1.0 | 4.0 | 0.00 | 0.00 | 0.00 | 78 | 1017.2 |
| 20260831041533 | 85 | 148 | 1.0 | 5.0 | 0.00 | 0.00 | 0.00 | 78 | 1017.0 |
| 20260831040035 | 85 | 0 | 1.0 | 6.0 | 0.00 | 0.00 | 0.00 | 77 | 1017.1 |
| 20260831034536 | 85 | 0 | 1.0 | 10.0 | 0.00 | 0.00 | 0.00 | 76 | 1017.1 |
| 20260831033036 | 85 | 134 | 2.0 | 7.0 | 0.00 | 0.00 | 0.00 | 76 | 1017.0 |
| 20260831031540 | 86 | 127 | 0.0 | 8.0 | 0.00 | 0.00 | 0.00 | 76 | 1017.0 |
| 20260831030033 | 86 | 141 | 1.0 | 7.0 | 0.00 | 0.00 | 0.00 | 75 | 1016.6 |
| 20260831024605 | 86 | 0 | 1.0 | 6.0 | 0.00 | 0.00 | 0.00 | 74 | 1016.5 |
| 20260831023036 | 86 | 164 | 2.0 | 9.0 | 0.00 | 0.00 | 0.00 | 74 | 1016.4 |
| 20260831021534 | 87 | 117 | 3.0 | 11.0 | 0.00 | 0.00 | 0.00 | 72 | 1016.1 |
| 20260831020035 | 87 | 165 | 3.0 | 8.0 | 0.00 | 0.00 | 0.00 | 71 | 1016.0 |
| 20260831014539 | 88 | 139 | 3.0 | 9.0 | 0.00 | 0.00 | 0.00 | 69 | 1015.8 |
| 20260831013035 | 89 | 142 | 2.0 | 8.0 | 0.00 | 0.00 | 0.00 | 67 | 1015.8 |
| 20260831011533 | 89 | 79 | 2.0 | 10.0 | 0.00 | 0.00 | 0.00 | 65 | 1015.7 |
| 20260831010036 | 90 | 138 | 2.0 | 9.0 | 0.00 | 0.00 | 0.00 | 64 | 1015.6 |
| 20260831004536 | 91 | 95 | 3.0 | 10.0 | 0.00 | 0.00 | 0.00 | 61 | 1015.4 |
| 20260831003034 | 92 | 161 | 2.0 | 10.0 | 0.00 | 0.00 | 0.00 | 59 | 1015.5 |
| 20260831001535 | 93 | 94 | 2.0 | 10.0 | 0.00 | 0.00 | 0.00 | 57 | 1015.3 |
| 20260831000036 | 94 | 130 | 4.0 | 10.0 | 0.00 | 0.00 | 0.00 | 55 | 1015.2 |
| 20260830234539 | 94 | 153 | 4.0 | 13.0 | 0.00 | 0.00 | 0.00 | 55 | 1015.2 |
| 20260830233036 | 95 | 53 | 6.0 | 13.0 | 0.00 | 0.00 | 0.00 | 54 | 1015.0 |
| 20260830231536 | 96 | 38 | 4.0 | 11.0 | 0.00 | 0.00 | 0.00 | 50 | 1015.0 |
| 20260830230036 | 97 | 92 | 4.0 | 9.0 | 0.00 | 0.00 | 0.00 | 50 | 1015.1 |
| 20260830224541 | 97 | 102 | 2.0 | 8.0 | 0.00 | 0.00 | 0.00 | 50 | 1015.0 |
| 20260830223038 | 96 | 0 | 2.0 | 9.0 | 0.00 | 0.00 | 0.00 | 51 | 1015.0 |
| 20260830221539 | 96 | 88 | 2.0 | 8.0 | 0.00 | 0.00 | 0.00 | 50 | 1014.9 |
| 20260830220036 | 97 | 103 | 3.0 | 10.0 | 0.00 | 0.00 | 0.00 | 50 | 1014.9 |
| 20260830214538 | 99 | 165 | 5.0 | 13.0 | 0.00 | 0.00 | 0.00 | 46 | 1014.7 |
| 20260830213034 | 99 | 113 | 3.0 | 11.0 | 0.00 | 0.00 | 0.00 | 46 | 1015.1 |
| 20260830211535 | 99 | 92 | 1.0 | 7.0 | 0.00 | 0.00 | 0.00 | 46 | 1015.1 |
| 20260830210036 | 100 | 107 | 2.0 | 9.0 | 0.00 | 0.00 | 0.00 | 45 | 1015.4 |
| 20260830204534 | 99 | 0 | 2.0 | 7.0 | 0.00 | 0.00 | 0.00 | 46 | 1015.5 |
| 20260830203038 | 99 | 124 | 3.0 | 9.0 | 0.00 | 0.00 | 0.00 | 46 | 1016.0 |
| 20260830201546 | 99 | 133 | 2.0 | 10.0 | 0.00 | 0.00 | 0.00 | 46 | 1016.1 |
| 20260830200036 | 99 | 0 | 2.0 | 9.0 | 0.00 | 0.00 | 0.00 | 46 | 1016.3 |
| 20260830194534 | 99 | 136 | 1.0 | 7.0 | 0.00 | 0.00 | 0.00 | 46 | 1016.4 |
| 20260830193033 | 97 | 133 | 5.0 | 11.0 | 0.00 | 0.00 | 0.00 | 46 | 1016.7 |
| 20260830191534 | 98 | 159 | 1.0 | 5.0 | 0.00 | 0.00 | 0.00 | 49 | 1017.0 |
| 20260830190037 | 97 | 340 | 2.0 | 7.0 | 0.00 | 0.00 | 0.00 | 52 | 1017.2 |
| 20260830184533 | 96 | 0 | 1.0 | 7.0 | 0.00 | 0.00 | 0.00 | 53 | 1017.2 |
| 20260830183034 | 97 | 98 | 2.0 | 8.0 | 0.00 | 0.00 | 0.00 | 52 | 1017.5 |
| 20260830181539 | 96 | 126 | 2.0 | 6.0 | 0.00 | 0.00 | 0.00 | 53 | 1017.7 |
| 20260830180037 | 96 | 134 | 3.0 | 9.0 | 0.00 | 0.00 | 0.00 | 52 | 1017.8 |
| 20260830174535 | 95 | 115 | 2.0 | 7.0 | 0.00 | 0.00 | 0.00 | 54 | 1018.1 |
| 20260830173043 | 95 | 0 | 1.0 | 7.0 | 0.00 | 0.00 | 0.00 | 56 | 1018.3 |
| 20260830171542 | 94 | 206 | 1.0 | 7.0 | 0.00 | 0.00 | 0.00 | 58 | 1018.6 |
| 20260830170033 | 93 | 0 | 0.0 | 3.0 | 0.00 | 0.00 | 0.00 | 60 | 1018.6 |
| 20260830164554 | 93 | 72 | 1.0 | 4.0 | 0.00 | 0.00 | 0.00 | 60 | 1018.6 |
| 20260830163044 | 92 | 94 | 1.0 | 5.0 | 0.00 | 0.00 | 0.00 | 62 | 1018.6 |
| 20260830161535 | 92 | 123 | 1.0 | 4.0 | 0.00 | 0.00 | 0.00 | 63 | 1018.5 |
| 20260830160034 | 91 | 112 | 1.0 | 6.0 | 0.00 | 0.00 | 0.00 | 65 | 1018.7 |
| 20260830154535 | 90 | 286 | 1.0 | 4.0 | 0.00 | 0.00 | 0.00 | 66 | 1018.7 |
| 20260830153036 | 90 | 123 | 1.0 | 4.0 | 0.00 | 0.00 | 0.00 | 67 | 1018.7 |
| 20260830151541 | 89 | 199 | 1.0 | 4.0 | 0.00 | 0.00 | 0.00 | 69 | 1018.8 |
| 20260830150041 | 88 | 230 | 0.0 | 3.0 | 0.00 | 0.00 | 0.00 | 72 | 1018.7 |
| 20260830144537 | 87 | 218 | 0.0 | 4.0 | 0.00 | 0.00 | 0.00 | 72 | 1018.7 |
| 20260830143036 | 87 | 0 | 1.0 | 3.0 | 0.00 | 0.00 | 0.00 | 75 | 1018.9 |